ECMWFFLT1_925_spd_000.txt.gz
Wind_Speed
17 16 15 13 13 14 15 17 19 19 18 17 17 17 16 15 14 12 11 10 8 7 6 4 3 2 1 1 1 2 2 2 2 3 3 3 3 4 5 6 6 6 6 7 7 7 7 7 7 7 7 7 8 8 9 9 10 11 11 11 12 13 14
17 16 15 14 14 14 16 18 19 19 18 18 18 18 17 15 15 13 11 10 9 7 6 5 5 3 2 1 1 1 2 2 2 2 2 3 3 4 5 6 7 7 6 6 6 7 7 7 7 7 8 8 8 9 9 10 10 10 11 11 11 11 11
16 16 15 15 14 14 16 18 19 19 19 19 19 19 18 16 15 14 12 11 10 8 7 6 5 4 2 2 2 2 2 2 2 2 2 3 4 5 6 6 7 7 6 6 6 7 7 8 8 8 8 9 9 9 10 10 11 11 11 10 11 11 11
15 16 16 15 15 15 16 18 19 19 20 20 21 20 18 17 16 14 12 11 9 8 7 6 5 4 3 2 2 2 2 2 2 3 3 3 4 5 6 6 7 7 6 6 7 7 8 9 9 9 9 10 10 10 11 12 12 12 12 12 12 12 12
15 16 15 15 15 14 15 17 19 20 20 21 21 20 18 18 16 14 12 10 9 7 6 6 5 4 3 3 3 3 3 3 3 3 4 4 4 5 6 6 7 7 7 7 7 8 8 9 9 10 10 11 12 12 12 13 13 13 13 13 13 13 13
14 15 15 14 15 14 15 18 21 21 21 22 21 20 18 18 16 14 12 11 9 8 7 6 5 4 4 4 4 4 3 4 4 4 4 4 5 5 6 6 7 7 7 7 7 8 8 9 10 11 12 13 13 13 14 14 14 14 13 12 12 12 14
13 14 15 15 15 15 16 19 22 22 21 21 21 20 19 17 15 13 12 11 10 9 8 7 7 6 5 5 5 5 5 5 5 5 5 5 6 6 6 6 6 7 7 8 8 8 9 10 11 12 13 14 14 15 16 15 15 14 14 12 12 13 14
14 14 16 16 16 16 16 19 22 22 22 21 20 20 19 16 14 13 12 11 10 9 8 8 7 7 6 6 6 6 6 6 6 6 6 7 7 7 7 7 7 8 8 9 9 9 10 10 11 12 13 15 15 15 15 16 14 13 13 13 13 15 15
14 14 16 17 17 16 16 20 22 21 21 21 20 20 18 16 14 13 12 11 10 9 9 8 7 8 7 7 7 7 7 7 6 7 7 7 8 7 7 8 8 8 9 10 10 10 11 11 12 13 13 14 15 13 13 14 14 13 13 12 13 14 15
13 14 15 17 16 14 16 20 21 20 20 20 19 18 18 16 15 14 12 12 11 10 9 8 8 8 8 8 8 8 8 8 7 8 8 8 8 7 8 9 9 9 10 11 12 12 12 13 13 14 14 13 13 12 12 13 13 14 13 12 12 13 14
13 13 13 16 16 15 17 18 19 19 19 18 18 18 18 17 16 15 13 13 12 10 9 9 9 9 8 8 9 9 9 9 8 8 8 8 8 8 8 9 10 11 11 11 12 13 14 14 15 15 14 13 12 12 12 12 12 12 12 13 12 12 13
11 12 13 16 16 16 17 16 17 19 19 18 19 18 17 16 16 15 14 13 12 10 9 9 9 9 9 9 9 9 9 9 9 8 8 8 8 8 9 10 11 11 12 12 13 14 15 15 16 15 14 14 13 13 13 12 11 11 11 11 12 12 13
10 10 12 14 14 15 15 15 16 19 20 19 20 19 17 17 16 15 14 14 13 11 10 10 10 10 10 9 9 9 9 9 9 8 8 8 8 9 10 11 12 12 13 14 14 15 16 16 17 17 16 15 14 14 13 12 11 11 10 10 10 12 13
10 11 11 13 14 15 16 15 15 17 20 20 20 19 17 16 15 15 14 14 13 12 11 10 11 11 10 10 10 10 10 9 8 8 8 9 9 10 12 13 13 14 14 15 15 16 17 17 17 17 17 16 15 14 13 12 12 11 9 9 9 11 13
11 12 13 14 15 16 16 16 15 16 19 20 19 19 17 15 14 14 14 14 13 12 12 11 12 12 11 11 11 11 10 9 9 8 8 9 9 11 13 13 13 14 14 15 16 16 16 17 17 17 17 16 15 14 13 13 12 11 9 8 9 10 13
12 13 14 15 16 16 16 16 16 17 19 19 19 19 17 15 14 14 15 15 14 13 12 12 13 13 12 11 12 11 10 10 9 9 9 10 10 12 13 14 14 13 13 15 16 15 15 15 15 16 15 15 15 13 12 11 10 11 11 9 8 11 14
13 14 15 15 16 16 16 16 16 17 18 19 19 19 17 15 15 15 16 15 14 13 13 14 14 14 13 12 12 12 11 10 10 11 11 11 12 13 14 14 14 13 14 15 15 14 14 14 14 14 14 14 13 11 10 10 10 12 12 9 8 12 14
12 13 14 15 16 16 17 17 17 17 19 20 20 19 17 16 16 17 17 15 13 13 13 15 15 14 13 13 13 12 11 11 12 12 12 12 13 14 14 14 14 14 15 15 14 12 13 13 13 13 13 12 12 11 10 10 11 13 12 9 9 12 14
11 12 13 14 16 17 17 18 19 20 21 21 21 20 18 18 18 18 17 15 14 13 14 15 14 14 13 13 13 12 11 12 12 12 13 13 14 14 15 14 14 14 15 14 12 12 13 13 13 13 12 11 10 10 11 10 10 12 11 9 10 12 12
10 10 12 14 15 16 16 17 19 21 22 22 22 20 19 19 19 18 17 15 14 15 16 15 14 14 13 13 12 12 12 12 12 13 13 14 14 14 13 13 13 13 14 13 12 12 13 13 13 13 11 11 11 11 11 9 9 11 11 10 10 10 11
8 9 11 12 14 15 15 16 19 21 22 22 22 21 20 20 19 18 17 16 16 16 16 15 14 14 14 13 12 12 12 12 12 13 13 13 13 13 12 12 12 12 12 12 12 13 13 13 14 13 12 11 11 12 12 10 10 11 11 11 10 10 10
7 8 10 11 12 14 16 18 20 21 21 21 21 21 20 20 20 18 17 17 17 17 16 15 15 14 14 13 12 12 12 12 12 12 13 13 13 13 12 12 12 12 11 11 12 13 13 13 14 13 13 13 13 13 12 10 10 10 11 11 11 10 10
5 7 8 9 12 15 17 19 20 21 22 21 21 22 21 20 20 19 18 18 18 17 16 15 15 15 14 13 12 11 11 11 11 12 13 13 12 12 11 11 12 12 11 11 13 13 13 13 14 13 13 16 18 18 17 14 11 10 11 11 11 11 12
4 6 8 11 13 16 18 18 19 22 24 23 22 22 21 20 21 20 19 19 18 17 16 16 15 15 13 12 12 11 11 10 11 12 12 12 12 12 12 11 11 12 11 11 14 15 12 13 15 16 15 15 17 19 21 19 16 11 9 10 11 12 14
5 6 9 11 14 16 18 18 20 23 24 22 21 21 21 22 22 21 20 20 19 17 17 17 16 14 13 12 12 11 10 10 10 11 11 11 12 12 10 8 9 11 10 10 12 13 12 13 15 17 19 19 20 20 21 21 18 12 9 10 11 12 14
5 7 9 11 13 15 17 18 19 20 20 19 20 22 22 22 23 22 21 21 20 19 18 18 16 14 13 12 11 10 9 9 10 11 10 11 11 9 6 5 7 9 9 9 10 9 9 10 11 14 18 21 21 21 21 21 19 13 11 11 10 11 14
7 7 9 11 13 14 16 17 17 18 18 20 22 22 20 20 21 21 21 20 20 20 18 17 15 14 13 12 9 8 9 9 10 10 10 10 10 7 3 4 7 8 8 8 8 6 7 8 8 10 15 18 19 20 21 21 19 15 13 12 10 10 13
8 8 9 10 12 13 14 15 16 18 19 22 23 19 16 17 18 18 18 18 20 20 18 16 15 14 11 9 6 6 7 8 9 10 9 10 10 7 4 4 8 10 9 8 6 5 6 7 7 9 12 15 17 18 19 22 21 16 13 12 10 9 11
8 8 9 10 12 13 13 12 13 17 20 20 18 14 13 15 15 15 15 18 20 19 17 15 13 10 8 7 5 5 7 8 8 9 8 8 8 7 5 6 9 10 10 8 6 6 6 7 8 9 11 13 15 15 18 21 18 12 11 11 10 9 10
8 8 9 10 11 13 12 11 11 13 15 14 11 10 12 14 13 13 15 17 18 16 13 12 11 9 7 6 5 5 6 7 7 7 7 7 7 7 7 8 9 10 8 8 8 8 7 7 7 9 11 12 13 15 19 19 13 9 10 11 11 11 10
8 8 8 8 9 10 10 9 8 7 7 7 7 7 10 12 12 13 16 18 16 13 12 12 11 9 7 6 5 5 5 6 5 4 5 5 6 7 7 8 9 10 9 9 10 9 9 8 7 9 12 12 10 13 17 17 11 9 9 9 12 13 11
8 8 8 8 7 7 6 5 5 5 5 5 5 6 8 10 11 13 16 16 14 13 13 12 11 9 8 6 5 4 3 4 3 3 3 4 6 7 7 8 9 9 9 9 11 10 10 9 8 9 11 11 10 12 15 13 10 8 9 11 13 13 11
8 8 8 7 7 5 3 3 3 5 5 5 5 6 7 8 10 12 12 12 11 12 12 11 10 8 7 5 4 4 3 1 1 3 4 5 6 7 8 8 9 10 10 11 12 11 10 10 9 9 10 9 10 12 14 11 7 7 11 16 16 14 12
7 7 7 7 6 4 3 3 3 3 2 2 1 2 4 5 7 8 8 8 9 9 10 9 8 7 5 4 4 4 3 2 2 3 5 6 6 8 10 8 8 10 12 12 11 9 9 10 9 8 9 9 9 11 13 10 8 10 15 19 18 16 14
8 8 7 7 7 5 4 3 2 3 3 3 2 1 1 2 3 4 4 5 5 7 8 8 7 4 3 3 5 5 5 5 5 6 6 7 8 9 9 8 9 11 12 11 10 10 10 10 9 7 7 8 8 9 9 9 10 13 17 18 16 14 11
8 9 8 8 7 7 7 6 5 5 4 4 3 2 1 1 1 3 3 3 4 6 7 8 7 3 3 5 6 7 7 6 7 7 6 8 9 8 6 7 10 13 11 8 9 10 9 7 6 4 4 4 4 6 7 8 10 14 16 15 11 7 6
8 8 8 7 7 7 7 6 6 5 4 4 3 2 2 2 2 2 3 3 4 5 6 7 7 4 6 7 6 6 6 8 9 8 7 7 7 7 6 4 5 7 6 5 6 5 3 1 1 2 3 4 3 4 7 9 11 12 12 10 6 5 8
7 8 7 7 7 7 7 6 5 5 4 3 3 2 2 2 2 3 3 3 3 4 5 7 7 6 7 7 6 4 5 8 8 6 7 6 6 7 7 3 1 1 2 2 2 1 3 4 5 7 7 7 7 6 8 11 12 11 9 5 3 4 8

ECMWFFLT1_925_spd_006.txt.gz
Wind_Speed
18 16 14 13 13 13 12 15 19 20 21 22 24 25 23 22 23 23 23 23 22 20 18 16 14 12 11 10 10 9 7 7 7 6 4 4 4 3 3 4 4 4 6 7 7 7 8 8 8 8 8 8 9 9 9 9 10 10 10 11 11 11 12
15 14 12 12 14 13 13 18 21 21 22 23 23 24 24 23 24 24 24 24 23 21 20 17 15 13 11 11 10 9 8 8 8 7 6 6 6 6 5 4 4 5 6 6 7 8 8 8 8 8 9 9 10 10 10 10 11 11 11 11 11 11 12
10 11 10 10 13 13 13 17 20 21 22 24 25 25 25 25 25 25 24 25 23 22 21 19 16 14 12 11 10 10 10 9 8 8 8 7 7 6 5 4 4 5 5 6 7 7 8 8 9 10 10 11 11 10 11 11 11 11 11 12 12 11 11
10 7 5 6 9 12 14 16 19 21 23 25 27 27 26 26 27 26 25 26 24 23 22 20 17 15 13 12 11 10 11 10 9 8 8 7 6 6 5 5 5 5 5 6 7 7 8 9 10 11 11 12 12 12 12 12 11 11 12 12 12 12 11
12 9 6 6 5 8 12 15 20 24 25 26 27 27 27 27 26 26 25 26 25 23 23 20 18 16 14 13 12 11 11 11 10 9 9 8 7 7 6 5 5 5 6 6 7 7 8 9 10 11 12 12 13 13 13 13 12 12 12 12 13 12 11
11 12 11 10 7 9 12 17 25 28 27 27 29 28 28 27 27 26 25 25 24 23 22 20 18 17 15 14 12 11 11 11 10 10 9 9 8 8 7 6 6 7 7 8 8 8 8 10 11 12 13 13 14 14 14 13 13 13 13 13 13 13 11
9 11 13 12 10 10 13 17 24 28 28 28 29 28 29 28 27 27 25 25 24 23 23 21 19 18 17 15 14 13 12 11 11 11 10 10 9 8 7 8 9 10 9 10 10 9 9 10 11 12 13 14 14 15 15 15 15 14 13 13 13 13 13
8 10 12 14 14 14 16 16 22 26 27 28 28 28 29 29 28 27 25 24 23 23 23 20 19 19 18 16 15 14 13 12 12 12 11 10 10 10 10 12 14 13 12 12 11 10 10 10 11 12 13 14 15 16 16 16 16 15 14 13 13 13 14
4 7 11 13 14 16 16 16 21 25 24 26 27 28 29 28 28 27 25 23 23 23 22 20 19 19 18 17 15 14 13 12 12 12 12 11 11 11 10 11 14 14 13 12 10 9 10 11 12 13 13 15 16 16 17 16 16 15 15 14 13 12 14
1 7 11 10 10 12 15 17 20 21 21 24 26 26 28 28 28 28 25 23 23 22 21 20 21 20 19 18 16 14 14 13 12 12 12 12 12 11 10 10 11 8 7 8 8 9 11 12 13 13 14 15 15 16 16 16 15 14 15 16 16 15 15
3 7 11 10 10 11 14 17 16 15 19 24 24 25 27 27 28 29 27 26 25 23 22 22 22 23 22 19 17 15 15 14 13 13 13 12 11 10 10 9 9 7 6 8 8 8 10 12 12 14 15 15 14 15 16 16 15 14 15 17 18 18 18
1 6 9 9 9 10 12 13 13 14 18 23 26 27 27 27 29 29 28 28 24 21 23 22 20 23 24 21 18 17 16 15 15 14 14 13 12 10 9 8 9 10 8 6 6 8 10 11 13 15 15 15 14 13 15 16 16 15 15 17 17 18 17
2 4 8 8 8 10 11 11 12 15 19 23 25 26 25 27 29 28 26 25 23 21 24 24 21 21 21 19 17 18 18 16 16 15 13 13 12 10 9 9 9 9 9 9 9 10 11 12 14 14 14 14 14 14 15 16 16 15 15 16 17 17 17
6 5 6 8 9 11 11 12 13 15 18 23 24 24 23 25 27 26 24 24 24 24 24 25 23 21 19 17 15 16 16 15 15 15 14 13 12 10 9 9 8 9 10 11 11 11 12 13 14 14 14 16 17 17 16 16 16 14 14 15 16 16 16
6 7 8 8 9 10 10 10 12 14 18 22 24 24 24 24 24 24 24 23 24 24 24 23 22 21 19 17 14 13 13 13 13 14 13 13 12 10 10 9 9 9 10 10 11 12 13 14 14 15 16 16 15 15 14 14 14 12 12 13 13 14 15
6 7 9 11 10 10 10 10 11 13 16 21 25 26 26 25 25 24 24 25 26 26 24 22 21 20 19 17 15 14 14 14 14 13 13 13 12 11 10 9 9 10 11 11 12 13 13 14 15 15 14 14 14 15 14 13 12 11 11 11 13 13 14
9 9 8 12 14 13 12 13 13 12 13 19 24 25 25 25 25 26 26 28 27 23 21 20 20 21 20 17 16 16 16 16 16 15 14 14 13 12 11 11 11 11 12 12 13 14 14 14 14 13 13 14 14 15 13 12 13 13 11 11 12 13 13
8 10 7 7 11 13 15 14 13 12 14 19 24 27 28 26 27 29 30 30 26 22 19 19 21 23 20 18 17 17 18 19 18 17 16 15 14 14 12 12 12 12 13 14 14 14 14 13 13 13 13 14 14 15 14 14 17 17 14 13 13 13 14
9 9 7 5 5 10 15 14 11 13 15 16 17 20 23 26 31 34 34 30 25 21 18 20 22 22 21 19 18 19 20 20 19 18 16 15 15 14 13 12 13 13 13 14 14 14 14 13 13 12 13 14 15 17 17 16 17 18 16 15 13 12 14
8 8 9 8 7 7 11 13 11 14 18 19 17 15 13 19 31 35 31 25 22 17 18 23 21 21 21 21 21 21 22 21 20 18 16 15 15 14 13 13 13 14 14 14 14 14 15 14 13 12 13 14 14 15 16 15 16 16 16 14 13 13 15
6 8 8 7 8 7 8 12 12 15 22 28 28 24 20 25 31 30 22 16 15 14 22 24 22 22 23 23 23 23 23 22 21 18 16 15 14 13 13 13 14 14 14 14 14 14 15 15 13 13 13 13 13 13 13 14 15 14 14 13 13 14 15
7 9 8 6 8 7 7 14 17 20 26 29 27 25 28 29 27 23 15 10 6 19 26 24 24 24 24 24 24 24 23 21 19 17 16 14 13 12 12 12 13 14 15 16 15 15 17 16 15 14 14 13 14 14 14 14 15 15 15 14 13 13 14
8 9 5 5 6 7 8 13 20 28 31 29 26 25 27 27 25 21 12 6 17 27 26 23 24 24 23 24 23 22 22 20 18 17 16 15 13 12 12 11 11 13 15 16 16 17 17 17 16 16 14 15 16 17 17 16 16 16 16 14 12 12 15
8 8 4 3 5 6 8 8 16 26 29 27 27 24 23 29 28 22 17 19 25 27 24 23 23 23 23 23 21 20 21 20 19 18 16 15 14 12 11 11 12 13 13 14 16 18 17 16 17 17 16 17 18 18 18 18 16 16 14 12 11 14 16
5 5 1 1 5 6 8 8 13 21 25 25 21 18 26 29 25 22 21 21 23 24 23 23 23 23 23 21 18 18 18 17 18 18 15 14 13 12 12 13 13 12 11 13 16 17 16 16 17 17 17 19 19 19 19 18 16 12 9 8 11 15 17
2 3 3 1 7 5 7 9 12 19 23 23 24 30 31 23 17 17 19 22 23 23 23 24 25 23 22 19 18 18 17 16 16 16 15 13 11 11 13 13 12 10 10 14 16 15 15 16 17 19 21 20 19 19 19 17 13 9 7 10 14 16 15
1 1 1 5 6 6 8 11 14 19 19 18 26 34 28 19 17 19 23 24 22 19 17 19 21 21 20 19 17 18 18 16 15 15 13 12 11 12 11 11 12 12 12 14 14 14 15 17 18 20 19 18 20 22 21 18 13 10 10 13 15 15 13
5 4 5 6 8 11 8 5 9 16 20 22 25 25 18 12 16 21 23 20 18 15 12 12 14 16 18 18 17 17 18 16 15 14 12 11 11 10 9 9 9 10 12 13 13 13 16 18 18 17 13 15 19 19 18 17 16 14 14 14 14 13 12
1 2 2 4 8 9 10 13 10 5 15 24 22 18 14 15 20 20 15 11 8 7 5 4 4 7 10 14 16 17 17 14 13 12 12 11 10 7 5 6 6 8 12 14 13 14 16 18 18 15 11 11 12 11 10 12 12 12 14 14 12 11 11
5 7 7 7 7 9 15 18 9 2 9 19 19 17 18 22 19 11 6 3 4 5 6 5 3 2 3 5 10 14 16 14 13 13 12 10 9 7 4 4 5 10 14 15 13 12 13 14 14 11 7 7 8 9 10 10 10 9 10 11 11 10 11
4 6 8 5 5 11 17 21 19 10 9 13 14 11 11 11 8 8 6 6 7 6 6 6 7 9 10 9 8 10 10 9 10 9 9 8 6 5 3 3 5 8 11 11 11 12 12 12 10 7 6 5 6 8 11 10 10 8 6 8 11 12 14
6 7 11 6 4 9 17 19 18 12 11 12 9 8 11 12 12 12 11 9 7 7 7 6 7 9 11 12 10 4 4 6 5 4 6 6 4 3 3 4 7 9 11 11 11 11 11 11 8 5 5 5 4 7 10 10 7 5 5 9 13 14 16
9 8 8 2 8 9 14 17 15 12 12 11 8 8 12 15 12 9 7 6 5 4 2 1 2 4 7 10 8 6 6 6 6 7 6 5 4 4 4 5 8 10 9 8 6 6 7 9 7 5 6 6 4 6 8 7 4 5 8 12 14 14 15
10 8 4 3 7 9 11 13 14 13 11 9 8 5 5 7 6 6 4 1 4 3 4 5 5 5 9 12 12 11 8 7 8 7 5 3 1 2 3 5 7 5 2 1 3 4 5 7 8 7 7 6 4 5 5 3 3 8 12 13 13 12 14
8 1 1 6 9 11 13 14 12 12 12 12 11 8 5 4 2 1 2 2 3 3 6 8 8 9 11 11 9 8 7 6 4 3 4 3 1 2 4 5 5 3 1 1 3 4 5 5 6 7 7 4 3 4 4 3 5 10 12 12 11 10 11
11 11 9 11 13 15 17 15 13 13 14 13 13 11 9 8 6 6 6 8 7 5 7 8 7 7 8 8 8 7 8 7 5 4 4 4 5 7 6 3 1 0 1 1 3 4 5 5 5 4 3 3 4 4 4 5 7 9 9 10 10 6 6
10 11 11 13 13 14 16 16 17 17 15 13 12 11 10 9 7 6 6 8 7 5 5 5 5 5 6 7 4 4 6 9 7 5 6 6 6 7 7 6 4 3 3 3 4 4 5 5 4 3 3 5 5 5 6 6 8 9 9 10 7 3 4
10 12 11 10 11 13 14 14 15 16 15 14 12 10 8 8 8 7 7 7 6 5 5 4 5 5 6 5 1 2 2 5 6 5 5 6 5 4 6 7 7 7 6 5 4 4 4 5 6 6 5 4 4 5 7 8 10 11 11 10 7 4 3

ECMWFFLT1_925_spd_009.txt.gz
Wind_Speed
14 16 17 14 14 15 15 18 22 26 27 27 29 32 32 32 33 33 32 33 32 31 30 27 24 23 21 19 19 17 15 14 12 10 9 8 8 8 8 7 7 6 6 5 5 5 6 7 5 4 4 5 6 6 6 6 7 8 7 7 7 8 9
13 14 15 14 13 14 16 19 24 26 27 29 31 32 32 33 34 34 33 33 33 32 31 29 26 26 24 21 20 19 17 15 12 11 10 9 9 10 7 7 8 7 6 5 5 5 4 3 2 3 5 6 7 7 7 8 9 9 8 8 7 8 9
13 13 15 15 14 14 16 19 23 27 29 30 32 32 33 34 36 36 36 34 33 32 31 29 28 27 25 23 23 21 18 15 14 14 12 9 9 9 8 8 8 7 6 6 5 4 3 3 4 6 7 7 8 8 8 9 11 11 9 9 8 8 9
13 12 15 16 15 14 16 19 23 27 30 32 34 35 35 36 37 37 37 36 34 33 32 31 29 28 26 25 25 22 19 17 16 15 12 9 9 10 10 10 9 8 8 8 7 4 4 5 5 7 8 8 8 8 9 10 11 10 9 8 8 9 10
14 12 13 15 13 13 14 17 23 27 29 32 35 36 36 37 37 36 36 36 36 34 33 32 30 29 27 26 25 23 20 19 17 15 12 10 10 12 12 10 10 10 10 10 8 6 6 6 7 9 9 8 9 9 9 10 10 10 9 9 10 10 11
14 12 13 14 13 13 14 17 24 29 31 33 35 35 35 35 35 35 36 36 36 34 33 32 31 30 27 26 25 23 21 20 19 16 14 12 12 13 12 11 12 13 12 12 10 9 9 9 10 10 9 9 9 9 9 10 11 11 11 11 12 12 11
12 11 12 14 13 13 14 17 24 29 30 32 34 33 33 34 34 35 35 36 36 34 34 33 31 30 29 26 24 23 22 21 20 17 15 15 14 14 13 13 14 15 15 13 11 11 11 12 11 10 10 10 10 10 10 11 12 12 12 13 14 13 12
10 10 10 11 12 13 13 15 20 26 28 29 31 31 32 33 34 34 35 35 35 35 35 34 33 31 30 27 25 23 23 22 20 18 16 15 16 15 15 15 16 16 16 15 13 13 13 14 13 11 11 12 12 12 12 12 13 12 12 13 15 14 14
10 11 11 10 12 12 11 14 20 25 27 28 30 32 33 33 33 34 35 36 35 34 35 35 34 32 30 29 26 24 24 22 20 18 16 16 17 16 16 16 17 16 16 17 16 16 16 16 14 13 13 14 14 15 14 14 14 13 13 14 14 14 14
9 11 12 11 12 12 11 14 18 20 22 26 28 30 31 32 33 34 35 35 35 35 36 35 34 33 31 29 27 25 23 22 21 18 16 17 17 17 17 17 19 19 18 18 18 18 16 14 12 12 13 14 15 17 17 15 13 14 15 15 14 14 14
10 10 11 11 12 11 10 11 13 15 19 24 27 30 31 32 32 33 35 36 34 34 36 35 34 34 32 30 28 26 24 23 21 19 17 18 19 19 19 18 18 16 12 12 15 15 13 10 9 10 11 12 14 15 15 14 11 12 13 15 14 14 15
10 10 11 12 12 11 11 11 11 14 19 24 26 28 31 31 32 33 34 35 35 35 36 35 33 34 33 31 29 27 25 24 23 20 19 20 20 20 21 20 17 12 6 7 10 10 9 9 10 10 10 11 10 9 10 11 11 12 13 14 15 14 15
9 10 11 13 13 12 12 11 11 14 18 23 26 28 31 31 32 33 33 34 35 35 35 34 34 35 33 31 29 28 27 25 22 21 20 21 21 20 19 18 15 12 8 7 8 8 9 9 9 9 10 10 9 10 12 13 13 13 14 15 15 14 14
9 10 10 11 11 12 14 13 12 12 16 21 25 27 29 30 31 32 33 35 35 36 36 34 34 35 34 32 30 29 28 25 21 21 22 22 22 20 19 17 15 14 12 10 10 10 9 8 8 10 12 12 13 15 14 13 12 12 12 13 13 14 15
9 9 10 11 11 12 14 14 13 12 14 20 24 25 26 28 29 30 32 33 32 33 36 35 36 37 35 32 31 29 27 24 22 23 23 23 22 20 19 18 16 15 15 15 14 13 11 9 10 12 14 15 16 14 12 12 13 13 12 13 13 14 14
8 8 9 10 10 11 13 15 15 15 15 18 23 26 26 26 28 30 31 32 30 31 34 37 39 39 36 32 30 28 27 25 25 26 25 25 23 21 20 18 17 15 15 15 14 13 12 12 13 13 15 16 16 13 13 14 15 14 14 13 13 13 13
5 5 6 8 9 9 11 13 15 15 15 18 24 26 27 28 29 27 24 24 25 27 34 40 40 37 36 32 26 23 25 27 27 26 28 27 24 22 21 18 17 15 14 14 14 14 15 15 15 15 15 16 16 15 15 15 15 15 16 15 14 14 14
3 0 2 5 8 9 10 11 12 13 15 19 23 25 27 26 19 16 16 16 17 20 29 36 37 35 32 24 17 18 23 25 25 24 26 26 23 22 20 18 16 15 15 15 16 17 17 17 16 16 16 15 15 14 14 15 16 17 18 17 15 14 14
2 2 3 4 6 10 10 9 10 12 16 21 25 26 26 22 23 25 25 28 29 29 30 30 28 25 19 12 8 19 23 23 24 24 23 24 23 21 19 17 17 17 17 17 18 18 18 18 17 16 17 16 15 15 15 16 17 17 16 17 16 14 13
4 4 5 5 5 7 10 11 10 13 18 23 23 22 23 25 29 33 36 39 40 39 34 28 23 20 14 6 11 21 25 26 26 25 25 25 23 21 19 19 18 18 18 19 19 19 18 18 16 16 16 17 16 16 16 16 16 15 14 14 15 14 13
6 5 6 6 7 8 8 9 11 14 16 16 18 25 29 31 34 35 34 34 32 28 25 23 21 18 12 13 20 25 28 29 28 27 27 26 24 22 21 20 19 20 20 20 19 19 17 16 15 15 15 16 16 16 16 14 14 15 14 13 13 13 13
6 6 7 7 9 10 7 9 15 14 11 19 24 27 29 30 31 30 28 28 26 22 20 20 18 13 13 22 26 28 30 29 28 28 28 26 24 23 22 21 21 21 21 21 19 18 17 16 16 16 16 17 17 16 13 10 11 12 12 13 16 16 14
7 5 5 4 6 6 6 6 7 13 24 29 29 29 29 31 33 33 31 30 29 26 22 20 21 23 25 27 28 29 30 28 28 28 27 25 25 23 23 22 22 21 21 21 19 18 17 16 16 17 18 18 16 12 9 10 12 13 13 14 15 14 12
6 2 1 3 6 10 17 20 23 27 27 24 21 19 21 25 29 33 34 33 32 29 26 26 29 31 29 27 28 29 30 29 29 29 28 27 27 26 25 24 22 20 19 19 18 15 13 13 16 17 15 11 9 8 9 12 15 17 18 15 10 8 9
6 6 7 12 19 25 31 36 35 30 25 23 23 20 17 17 19 20 20 23 23 23 25 29 32 32 30 28 29 30 30 30 30 29 30 30 29 28 27 25 22 19 18 16 14 10 9 10 12 12 9 7 8 9 11 14 15 17 16 12 7 7 11
7 7 9 18 27 30 33 35 32 27 26 27 27 25 22 21 22 19 16 18 22 22 25 29 32 31 29 29 31 32 31 31 31 31 32 31 31 29 28 25 21 17 15 12 9 6 7 8 8 6 6 8 11 13 14 15 15 14 11 8 6 8 9
4 8 15 24 29 29 29 30 30 29 29 30 31 30 27 26 26 25 24 25 26 27 29 29 28 26 27 29 31 31 31 31 32 33 33 31 30 28 26 22 18 14 10 7 4 4 7 10 9 7 7 10 12 14 14 13 12 10 7 5 5 6 6
6 11 19 25 29 29 28 26 27 28 28 29 31 32 31 29 26 26 26 23 21 23 23 21 22 25 29 31 30 29 29 30 30 31 31 28 27 25 21 17 14 11 7 4 3 7 10 11 10 8 8 9 11 12 12 10 10 8 5 4 4 4 5
8 11 16 19 21 26 27 23 22 25 26 28 30 30 31 29 25 22 19 16 16 18 18 21 26 30 30 29 27 26 26 25 25 26 25 23 22 20 16 12 9 7 4 2 9 13 13 9 8 7 8 8 8 8 8 7 8 6 4 4 5 5 6
7 10 14 16 17 22 26 23 21 23 26 28 30 31 30 27 22 18 15 13 14 17 18 20 21 20 19 17 15 15 15 16 16 17 18 18 17 15 13 10 7 3 3 9 14 15 12 9 8 7 5 5 5 5 5 5 5 5 5 5 5 5 8
7 9 11 13 15 20 25 26 25 24 25 27 30 31 30 24 18 16 16 16 16 16 17 16 14 14 13 11 10 11 12 14 15 16 16 16 14 13 11 9 4 2 8 10 11 13 12 11 9 5 3 3 3 3 4 4 4 5 6 6 6 7 9
7 10 12 12 13 16 20 24 24 23 22 23 24 24 24 21 18 19 17 14 12 11 11 10 10 12 12 9 10 13 15 17 19 18 16 14 13 12 9 5 1 5 6 7 9 10 10 8 6 5 3 3 3 2 3 4 5 6 6 6 6 8 9
4 7 11 14 16 18 19 20 21 20 20 19 19 20 21 19 18 16 13 12 10 9 8 7 8 12 13 13 14 16 19 20 18 14 13 12 12 9 5 3 4 5 6 7 7 6 4 2 3 4 4 4 5 4 4 6 7 6 6 7 7 8 8
4 6 10 14 17 18 18 19 19 21 21 20 18 18 18 16 12 11 13 14 10 8 9 8 7 10 13 14 16 16 16 15 13 12 13 12 9 5 3 2 3 5 9 9 7 6 4 3 4 4 3 5 6 5 5 7 7 6 6 8 8 7 6
7 8 11 15 17 19 18 18 17 18 18 16 12 9 8 6 5 8 13 14 10 9 11 11 10 11 11 11 11 11 10 11 13 15 14 9 7 7 8 7 8 9 10 8 6 4 4 4 5 5 4 6 7 6 6 7 6 6 7 7 7 5 4
9 10 12 15 19 21 22 20 18 17 16 14 12 12 12 13 12 10 10 10 9 10 13 13 12 11 10 10 9 9 10 12 14 14 13 11 12 13 11 9 9 8 8 6 4 3 2 2 4 4 5 6 6 5 5 4 5 5 5 4 3 2 4
9 10 11 14 15 16 17 17 17 19 19 17 17 18 16 15 14 8 6 8 11 14 14 13 14 11 8 9 12 15 17 16 15 16 18 17 16 15 13 12 11 8 7 7 5 4 3 2 2 3 3 4 4 3 2 2 2 1 2 2 3 4 6
10 11 13 13 14 14 14 15 17 19 19 18 19 20 18 12 5 8 13 14 15 16 14 13 13 10 7 9 13 18 19 16 14 17 19 17 16 16 16 16 15 12 10 8 7 5 5 4 4 4 3 1 1 1 1 2 3 3 3 3 4 4 4

ECMWFFLT1_925_spd_015.txt.gz
Wind_Speed
14 14 14 13 13 14 14 15 19 23 25 27 29 31 33 34 34 33 34 35 36 36 36 36 37 36 35 35 33 31 30 29 28 27 24 22 21 20 19 18 18 17 17 16 14 13 12 12 12 10 9 9 9 8 7 7 7 6 6 6 6 6 6
13 13 13 13 14 15 15 16 20 23 25 28 30 31 33 34 35 36 36 36 37 38 38 37 38 37 37 37 34 33 32 31 29 27 24 23 22 21 20 19 18 18 17 16 14 13 14 13 12 11 11 11 10 8 8 8 7 6 6 7 8 8 8
13 13 14 14 15 16 15 15 20 25 27 28 30 31 34 37 39 40 39 38 39 39 37 38 39 38 38 38 36 34 33 32 30 27 26 25 24 22 20 19 18 17 16 15 14 14 14 13 13 12 11 10 10 9 9 8 8 7 7 8 10 11 11
15 15 15 16 16 15 13 15 20 25 28 31 34 36 38 40 41 41 40 40 40 39 40 41 40 39 39 38 37 36 35 34 31 28 27 26 24 22 20 19 18 17 16 15 14 14 14 13 13 13 11 10 10 9 9 9 9 9 9 9 10 11 12
16 15 13 14 14 13 12 14 19 25 28 31 34 36 37 39 38 37 38 39 39 41 43 41 39 38 38 38 38 37 37 35 31 29 28 26 24 21 20 20 19 18 17 15 14 15 15 15 14 13 12 11 10 9 8 8 9 10 11 11 11 11 12
14 13 12 13 13 13 13 14 21 28 30 32 35 37 36 35 34 35 37 36 37 39 39 37 37 37 38 38 37 37 36 34 31 30 29 27 23 21 20 20 19 18 17 15 15 16 16 16 15 14 13 12 10 9 9 9 9 10 11 11 12 12 12
13 12 13 13 13 14 14 15 21 28 31 32 33 33 32 32 33 34 34 34 36 37 37 36 37 38 38 37 36 37 37 35 32 31 30 27 23 21 19 19 20 19 17 15 16 17 17 17 16 15 14 13 12 11 10 11 11 11 11 12 12 13 13
14 13 14 15 14 14 13 13 18 25 27 27 27 28 30 32 32 32 33 35 36 36 37 38 39 39 37 36 36 38 39 37 34 32 29 26 23 21 20 20 21 20 18 17 17 17 18 18 17 16 15 14 14 13 13 13 13 13 13 14 15 15 15
14 14 16 15 14 13 12 13 18 22 24 26 27 29 31 32 33 34 35 36 35 36 39 40 39 38 37 36 38 41 41 36 33 31 29 26 24 22 21 21 21 20 19 18 18 18 19 19 17 16 16 15 15 14 15 16 16 16 16 17 18 19 18
14 15 15 14 13 11 9 10 14 16 19 23 26 28 30 31 33 34 35 35 35 38 41 39 36 36 35 36 40 41 36 28 24 26 27 27 25 23 22 21 21 21 20 19 18 19 20 19 18 17 17 17 17 17 17 18 17 17 17 17 18 18 17
13 14 14 13 11 9 9 10 11 13 17 23 26 28 30 32 33 34 35 37 37 39 40 36 34 35 36 38 39 34 27 25 24 27 29 28 26 24 23 22 22 22 20 19 19 20 21 20 19 19 19 19 19 19 18 16 15 15 14 14 13 13 14
12 12 13 13 12 10 10 11 12 13 17 23 26 28 30 32 34 35 36 38 39 38 37 35 35 35 36 35 29 25 26 29 32 31 31 30 28 25 24 23 23 22 20 20 21 21 20 19 19 20 20 20 19 18 16 15 14 13 12 11 11 12 13
12 12 12 13 12 11 11 11 12 14 17 22 26 28 30 32 34 35 35 37 38 37 35 35 33 30 28 24 21 25 29 31 31 29 28 28 27 24 24 24 23 21 19 21 23 22 19 18 19 20 20 19 18 17 17 16 15 14 13 12 12 13 14
12 11 11 11 11 11 11 12 12 13 15 20 24 27 29 31 33 34 35 36 36 35 33 30 26 23 24 24 25 31 34 31 27 24 24 25 25 25 25 25 22 20 21 24 24 22 19 18 19 20 19 19 18 18 18 17 15 14 14 14 14 15 16
11 12 12 12 12 11 11 12 12 12 13 18 22 24 26 28 29 30 32 32 32 32 29 24 24 25 29 31 31 37 39 32 26 25 25 26 27 28 28 26 23 22 26 29 26 23 21 20 20 20 20 19 18 18 18 17 16 16 16 16 16 17 17
13 13 14 13 11 10 11 11 11 10 10 13 18 21 23 25 27 29 30 30 30 30 26 24 28 32 34 36 35 38 37 31 26 27 28 29 31 31 28 26 26 27 30 31 28 25 24 23 22 22 20 18 16 16 16 17 17 17 17 17 18 18 18
12 12 11 10 9 9 8 7 6 5 6 9 15 19 22 23 25 27 27 28 28 25 23 27 33 35 35 35 35 34 32 30 30 31 30 31 32 32 28 27 32 33 32 32 31 28 26 25 25 24 20 16 14 14 15 16 17 17 18 18 18 18 19
11 10 9 8 7 7 7 6 6 6 7 9 13 16 18 20 20 21 22 23 22 20 23 30 34 33 32 33 35 35 34 35 37 37 36 35 35 36 34 31 32 33 34 35 33 30 28 28 27 25 20 17 16 17 17 18 18 17 18 18 18 19 20
9 8 7 7 7 7 7 6 7 8 10 12 16 19 21 22 21 20 20 20 19 22 27 32 34 34 35 38 42 42 40 41 40 39 39 38 39 40 37 32 30 32 35 35 34 32 30 30 29 25 20 19 19 19 20 20 19 18 18 19 19 19 20
7 7 6 7 7 8 8 7 7 10 13 16 20 23 24 24 24 23 23 23 25 28 32 35 37 38 39 40 42 43 43 43 42 40 40 40 41 41 36 31 31 32 33 34 34 33 31 31 30 25 22 21 20 20 21 21 20 20 19 19 20 20 20
6 7 6 7 7 7 7 7 8 10 13 15 17 19 21 23 24 25 26 28 31 32 35 36 35 35 35 35 37 41 43 43 43 43 42 39 34 31 29 29 31 33 34 33 34 34 33 32 30 26 24 21 20 20 21 21 20 20 21 22 21 20 18
8 8 8 8 7 7 8 9 10 12 13 14 15 18 21 23 25 26 27 30 32 33 34 35 33 33 34 36 37 40 42 42 41 39 35 29 26 26 28 30 32 34 34 33 33 34 32 30 29 27 23 20 20 21 21 21 20 21 22 22 19 16 14
8 7 7 6 5 5 7 9 10 12 14 15 16 19 23 25 26 27 27 28 29 31 32 33 34 34 36 37 38 39 39 39 37 32 26 25 29 32 33 32 33 35 34 32 33 32 31 30 29 25 22 21 21 21 20 20 21 21 20 17 14 12 12
5 5 5 5 4 3 5 8 10 13 15 17 17 19 23 25 26 27 26 25 27 29 31 32 32 33 35 36 38 40 40 36 32 30 27 28 33 34 33 33 33 34 33 32 33 33 31 30 27 24 22 22 20 19 18 19 18 16 14 11 11 13 15
6 6 6 7 8 10 11 13 13 13 14 16 18 20 23 26 27 27 25 26 28 29 29 30 31 33 36 38 39 40 38 32 29 30 33 36 36 35 34 33 33 32 32 32 32 31 29 28 25 23 20 17 15 14 15 15 13 11 10 10 12 14 15
6 6 7 8 9 12 16 16 15 15 16 18 20 21 24 26 27 26 25 26 28 28 28 30 33 35 36 35 35 35 31 28 31 36 39 39 36 31 30 28 27 25 24 25 27 27 26 24 22 20 17 14 12 12 12 12 11 10 11 12 12 13 12
6 6 7 7 8 11 14 14 13 14 15 17 19 22 24 26 25 23 25 26 26 26 28 30 31 31 30 28 29 29 28 28 34 40 39 33 26 23 23 23 20 16 15 17 19 21 21 19 17 18 16 13 11 11 12 13 13 11 11 11 10 11 12
7 7 7 6 7 9 11 10 8 9 12 15 19 22 25 26 24 22 22 21 19 20 22 23 23 23 24 24 25 27 27 28 32 34 28 21 18 20 23 22 19 18 18 19 19 18 15 12 13 15 13 10 9 12 14 14 13 11 10 10 10 11 12
5 5 3 4 5 8 9 9 9 10 11 15 19 21 22 22 18 15 13 11 11 15 17 17 18 20 22 23 24 26 25 24 25 24 19 16 17 21 22 20 19 21 24 25 23 17 13 13 14 14 13 12 12 14 14 13 12 10 10 10 11 12 13
3 2 2 4 6 8 9 8 9 10 11 14 16 16 16 14 11 10 11 9 10 13 15 16 18 19 20 21 21 21 21 20 21 20 18 16 17 20 21 20 20 21 22 23 22 18 15 15 14 14 15 16 16 16 15 14 12 11 11 11 11 12 12
4 4 4 4 6 8 9 9 9 10 10 11 12 12 10 9 9 11 11 9 10 13 15 16 16 16 16 16 15 15 16 17 16 15 16 19 22 24 23 21 21 21 19 20 21 19 18 16 13 14 16 19 19 18 16 14 12 12 12 11 11 10 10
4 4 3 4 7 9 9 8 8 9 10 9 9 10 9 8 9 11 9 8 9 12 14 15 14 12 11 10 11 12 13 12 11 15 21 24 24 23 21 21 21 21 20 20 20 17 16 14 14 14 16 19 18 17 16 14 14 14 12 11 9 9 8
2 1 4 6 8 9 9 9 9 9 10 10 9 10 10 8 8 9 7 6 7 10 12 13 13 13 12 12 13 12 12 11 12 16 19 19 19 18 19 19 21 22 22 22 20 18 15 15 15 16 17 17 16 16 15 15 15 14 12 10 9 8 9
2 3 5 7 9 9 10 10 8 8 10 11 12 12 11 11 10 10 10 10 10 11 13 12 12 11 11 11 9 6 8 11 11 13 15 17 17 16 15 16 19 22 23 22 21 20 16 14 16 17 18 17 16 15 15 15 15 14 11 9 10 10 11
4 5 7 9 11 12 12 10 8 10 12 14 15 15 14 15 17 18 19 19 17 15 15 12 10 9 8 6 6 5 7 12 12 13 16 17 16 14 14 14 17 19 19 19 19 18 14 13 15 17 15 14 14 15 15 15 14 12 10 10 11 12 12
5 7 9 11 12 12 12 11 12 13 15 16 18 19 20 22 23 24 23 22 20 18 18 17 15 14 10 7 9 13 15 15 14 14 16 16 16 16 15 14 14 14 15 15 15 13 12 12 13 12 12 12 12 12 12 11 11 10 11 11 12 11 10
7 9 11 13 14 12 12 14 16 16 18 19 20 22 24 25 26 24 22 21 20 17 16 16 15 13 12 13 17 19 18 16 15 16 17 17 17 17 16 14 12 11 11 11 11 11 12 12 11 10 10 10 10 10 10 9 8 9 9 10 10 9 8
7 10 12 13 14 14 14 16 18 19 20 22 23 24 26 26 25 23 21 19 17 13 10 12 13 13 14 19 21 19 17 17 17 18 18 18 18 17 16 15 13 11 10 10 11 11 11 11 10 10 9 9 8 9 9 8 8 8 8 8 8 7 6